Location: Unspecified
(0.0000°N, 0.0000°E)
Time: 09:45:07
(UTC+00:00)

S-56A Canister/Altair - Pass Details

Date: 19 December 2018
Orbit: 633 x 2500 km, 38.9° (Epoch: 17 January)

Event Time Altitude Azimuth Distance (km) Brightness Sun altitude
Rises 09:24:47 0° 316° (NW) 6,067 11.7 46.3°
Reaches altitude 10° 09:28:42 10° 318° (NW) 5,129 11.4 47.1°
Maximum altitude 09:43:57 76° 42° (NE) 2,428 11.0 50.1°
Drops below altitude 10° 09:56:34 10° 126° (SE) 4,348 12.2 52.5°
Sets 09:59:35 0° 127° (SE) 5,132 12.3 53.1°
